sat.trackr.live / text

‹ back to catalog

STARLINK-3668

NORAD 52002 · 2022-025AY

PAYLOAD ACTIVE UNKNOWN

§ Identity

Operator
Country
US
Launch date
2022-03-09
Launch site
AFETR
Launch vehicle
Mass (kg)
RCS (m²)

Purposes: comms

External: N2YO · Heavens-Above · Gunter

§ Orbital elements

Epoch: 2026-09-20T01:35:40.452288Z

Period
93.85 min
Inclination
53.1611°
Eccentricity
0.0001499
Mean motion
15.34415680 rev/d
Perigee alt
461.6 km
Apogee alt
463.7 km
Semi-major
6,840.8 km
B*
-3.1830e-6
RAAN
215.6410°
Arg perigee
96.9465°
Mean anomaly
263.1708°
Rev number
25,041

§ Raw data

STARLINK-36681 52002U 22025AY  26263.06644042 -.00000484  00000+0 -31830-5 0  99922 52002  53.1611 215.6410 0001499  96.9465 263.1708 15.34415680250415

JSON: /api/v1/satellites/52002 · /tle

For live sub-satellite position, see the globe view (requires WebGL).

§ Visibility from observer

Set your observer location to see the next 7 days of passes ≥ 10°. The values pass through the URL so the page stays shareable.

No JS? Fill the form by hand. The geolocation button needs JavaScript.